Regional Weather Roundup
Issued by NWS Little Rock, AR

Home | Current Version | Previous Version | Graphics & Text | Print | Product List | Glossary On
Versions: 1 2 3 4 5 6 7 8 9 10 11 12 13 14 15 16 17 18 19 20 21 22 23 24 25 26 27 28 29 30 31 32 33 34 35 36 37 38 39 40 41 42 43 44 45 46 47 48 49 50
000
ASUS44 KLZK 292205
RWRLZK

WEATHER ROUNDUP FOR ARKANSAS
NATIONAL WEATHER SERVICE LITTLE ROCK AR
500 PM CDT SAT AUG 29 2015

NOTE: "FAIR" INDICATES FEW OR NO CLOUDS BELOW 12,000 FEET WITH NO
SIGNIFICANT WEATHER AND/OR OBSTRUCTIONS TO VISIBILITY.

ARZ001-003-010-029-292300-
NORTHWEST ARKANSAS

CITY           SKY/WX    TMP DP  RH WIND       PRES   REMARKS
FAYETTEVILLE   MOSUNNY   82  69  64 SW8       29.99S HX  85
FORT SMITH     SUNNY     89  66  46 E10       29.93F HX  91
BENTONVILLE    PTSUNNY   86  68  54 S12       29.99F HX  89
ROGERS         CLOUDY    86  70  58 SW9       29.99S HX  90
SILOAM SPGS    MOSUNNY   86  66  51 SW13      29.96F HX  88
HIGHFILL       MOSUNNY   86  69  56 SW8       29.98S HX  90
SPRINGDALE     PTSUNNY   84  70  61 SW10      30.00F HX  88
$$

ARZ004-005-016-292300-
NORTH CENTRAL ARKANSAS

CITY           SKY/WX    TMP DP  RH WIND       PRES   REMARKS
BATESVILLE     CLOUDY    81  70  69 CALM      30.01S
FLIPPIN        MOSUNNY   82  63  51 S5        29.98S
MTN HOME       MOSUNNY   80  66  62 S7        29.99F
$$

ARZ040-041-292300-
WEST CENTRAL ARKANSAS

CITY           SKY/WX    TMP DP  RH WIND       PRES   REMARKS
MENA           PTSUNNY   86  70  58 CALM      30.00F HX  90
MOUNT IDA      CLOUDY    84  68  58 VRB3      29.99F HX  87
$$

ARZ009-017-025-026-028-292300-
NORTHEAST ARKANSAS

CITY           SKY/WX    TMP DP  RH WIND       PRES   REMARKS
JONESBORO      CLOUDY    81  68  64 CALM      30.00F
NEWPORT        CLOUDY    81  70  69 SE3       30.00F
WALNUT RIDGE   PTSUNNY   82  66  57 SW7       30.00S HX  85
BLYTHEVILLE    CLOUDY    89  66  46 W6        30.00S HX  91
$$

ARZ022-023-033-042-044-292300-
CENTRAL ARKANSAS

CITY           SKY/WX    TMP DP  RH WIND       PRES   REMARKS
LITTLE ROCK    CLOUDY    87  64  46 S8        29.99S HX  88
N LITTLE ROCK  CLOUDY    83  69  62 SW3       29.99S HX  87
JACKSONVILLE   CLOUDY    82  68  62 NW1       29.98F HX  85
SEARCY         CLOUDY    86  69  56 CALM      30.00F HX  90
HOT SPRINGS    CLOUDY    84  70  62 W6        30.00F HX  88
RUSSELLVILLE   PTSUNNY   83  67  58 VRB3      29.98F HX  85
$$

ARZ036-292300-
EAST ARKANSAS

CITY           SKY/WX    TMP DP  RH WIND       PRES   REMARKS
WEST MEMPHIS   PTSUNNY   87  64  46 SW5       29.97F HX  88
$$

ARZ050-053-066-070-073-292300-
SOUTHWEST ARKANSAS

CITY           SKY/WX    TMP DP  RH WIND       PRES   REMARKS
ARKADELPHIA    FAIR      87  71  58 S6        29.98F HX  92
CAMDEN         PTSUNNY   90  63  40 CALM      29.98F HX  90
TEXARKANA      PTSUNNY   88  70  55 S8        29.98F HX  93
EL DORADO      MOSUNNY   91  60  35 VRB5      29.98F HX  90
DE QUEEN       CLOUDY    88  71  57 SE6       29.96F HX  94
$$

ARZ056-057-069-292300-
SOUTHEAST ARKANSAS

CITY           SKY/WX    TMP DP  RH WIND       PRES   REMARKS
PINE BLUFF     PTSUNNY   87  63  44 W6        29.98F HX  88
STUTTGART      PTSUNNY   90  63  40 SW6       29.99S HX  90
MONTICELLO     MOSUNNY   93  62  35 CALM      29.97F HX  93

$$





USA.gov is the U.S. government's official web portal to all federal, state and local government web resources and services.